Find BRO-22

NORAD ID: 69502 Int'l Des: NNA 2026-131 Owner: UNSEEN Country: F operational

Aktuelle Ansicht

3D-Globus wird geladen...

About BRO-22

BRO-22 (NORAD 69502) is a satellite launched Jun 12, 2026 by UNSEEN of F. with a mass of 10.00 kg.

Nächste Überflüge

Passes for default location (London). Set your location on the main map for personalized predictions.

Höhenverlauf

Loading altitude history...

Zweizeiliger Elementsatz

1 69502U 26132A 26163.14938610 .00000269 00000-0 30315-4 0 9999
2 69502 97.6783 226.9296 0006515 253.7332 106.3171 14.94204437 21
Epoch: 12. Juni 2026 • Age: 27 hours

Aktueller Status

Höhe 589.3 km
Geschwindigkeit 7.56 km/s
Subsatellitenpunkt 3.13°N, 137.81°W
Startdatum 12. Juni 2026
Alter 1 day
Typ other

Technische Details

Klassifizierung Payload
Masse 10.00 kg
Trockenmasse 10.00 kg
Gesamtmasse 10.00 kg
Länge 0.40 m
Durchmesser 0.20 m
Spannweite 0.40 m
Form Box
Hersteller GOMSP
Bus-Typ Cubesat 8U
Phasenstatus In Orbit
Besitzer/Staat UNSEEN/F

Most Searched